Location: Newark
(30.0333°N, 31.2167°E)
Time: 19:15:16
(UTC+00:00)

Vanguard 3 - Pass Details

Date: 20 January 2020
Orbit: 508 x 3263 km, 33.3° (Epoch: 19 February)

Event Time Altitude Azimuth Distance (km) Brightness Sun altitude
Rises 15:28:05 0° 232° (SW) 7,013 13.8 -2.2°
Reaches altitude 10° 15:32:40 10° 230° (SW) 6,125 13.1 -3.1°
Maximum altitude 15:52:30 67° 152° (SSE) 3,204 10.1 -7.1°
Enters shadow 16:07:14 11° 75° (ENE) 4,776 10.4 -10.2°
